Home   Weather   Kirchdorf an der Krems   Past weeks

Flag for Austria Past Weather in Kirchdorf an der Krems, Upper Austria, Austria — Yesterday and Last 2 Weeks

Now
30 °F

Chilly.


Feels Like: 30 °F
Forecast: 20 / 38 °F
Wind: 2 mph from West

Location: Kremsmuenster

Current Time: Dec 6, 2016 at 7:09:33 pm

Latest Report: Dec 6, 2016 at 6:00 pm


Visibility: N/A

Pressure: 30.58 "Hg

Humidity: 91%

Dew Point: 28 °F

Location of Kirchdorf an der KremsLocation

Past Weather in Kirchdorf an der Krems — Graph

°F

Kirchdorf an der Krems Temperature Yesterday

Maximum temperature yesterday: 29 °F (at 2:00 pm)
Minimum temperature yesterday: 28 °F (at 7:00 pm)
Average temperature yesterday: 29 °F

High & Low Weather Summary for the Past Weeks

 TemperatureHumidityPressure
High53 °F (Nov 22, 2:00 pm)99% (Nov 23, 4:00 am)30.61 "Hg (Nov 23, 4:00 am)
Low22 °F (Dec 4, 8:00 am)45% (Dec 1, 7:00 pm)29.79 "Hg (Nov 21, 5:00 pm)
Average36 °F84%30.25 "Hg
* Reported Nov 21 5:00 pm — Dec 6 5:00 pm, Kirchdorf an der Krems, Weather by CustomWeather, © 2016

Note: Actual official high and low records may vary slightly from our data, if they occured in-between our weather recording intervals... More about our weather records

Advertising

Kirchdorf an der Krems Weather History for the Previous 24 Hours

Scroll right to see more
 ConditionsComfort  
Time TempWeatherWind HumidityBarometerVisibility
5:00 pm
Tue, Dec 6
30 °FChilly.1 mph89%30.56 "HgN/A
4:00 pm31 °FFog.2 mph87%30.54 "Hg2 mi
3:00 pm31 °FChilly.1 mph86%30.53 "HgN/A
2:00 pm30 °FChilly.2 mph86%30.53 "HgN/A
12:00 pm29 °FChilly.1 mph89%30.53 "HgN/A
11:00 am29 °FChilly.2 mph90%30.54 "HgN/A
10:00 am28 °FFog.3 mph92%30.54 "Hg2 mi
9:00 am27 °FChilly.2 mph93%30.53 "HgN/A
8:00 am27 °FChilly.1 mph93%30.50 "HgN/A
7:00 am27 °FFog.2 mph94%30.48 "Hg2 mi
6:00 am27 °FChilly.2 mph94%30.48 "HgN/A
5:00 am27 °FChilly.2 mph94%30.48 "HgN/A
4:00 am27 °FChilly.1 mph94%30.48 "HgN/A
3:00 am28 °FChilly.No wind95%30.48 "HgN/A
2:00 am28 °FChilly.3 mph94%30.47 "HgN/A
1:00 am28 °FChilly.2 mph93%30.47 "HgN/A
12:00 am28 °FChilly.2 mph93%30.47 "HgN/A
11:00 pm
Mon, Dec 5
28 °FChilly.1 mph93%30.47 "HgN/A
10:00 pm28 °FChilly.2 mph93%30.47 "HgN/A
9:00 pm28 °FChilly.1 mph93%30.46 "HgN/A
8:00 pm28 °FChilly.2 mph91%30.47 "HgN/A
7:00 pm28 °FFog.1 mph91%30.46 "Hg2 mi
Weather by CustomWeather, © 2016

See weather overviewHow to use our weather pages